[[{"header":{"parameterUnit":"m.s-1","parameterCategory":1,"la1":30.2991,"la2":30.254,"lo1":-89.0895,"lo2":-89.0444,"dy":0.0017,"dx":0.0017,"nx":28,"ny":28,"refTime":"2023-10-10T03:00:00:Z","depth":0,"parameterNumber":2,"parameterNumberName":"U-component_of_WINDS"},"data":[0,0,0,0,0,0,0,0,0,0,0,0,0,0,0,0,0,0,0,0,0,0,0,0,0,0,0,0,0,0,0,0,0,0,0,0,0,0,0,0,0,0,0,0,0,0,0,0,0,0,0,0,0,0,0,0,0,0,2.5265,2.5265,0,2.5307,2.5308,2.5308,2.5259,2.5257,2.5256,2.5254,2.5297,2.53,2.5303,0,0,0,0,0,0,0,0,0,0,0,0,0,2.5139,2.5141,2.5265,2.5265,2.5266,2.5307,2.5308,2.5308,2.526,2.5257,2.5255,2.5253,2.5296,2.53,2.5303,0,0,0,0,0,0,0,0,0,0,0,0,0,2.5189,2.5142,2.5264,2.5246,2.5245,2.5307,2.5308,2.5308,2.526,2.5257,2.5255,2.5252,2.5295,2.5299,2.5304,2.5385,0,0,2.5317,2.5319,0,0,0,0,0,0,0,0,2.5186,2.5193,2.5249,2.5248,2.5247,2.5275,2.5279,2.5334,2.5261,2.5255,2.5254,2.5251,2.5292,2.5296,2.531,2.5387,2.5389,2.5317,2.532,2.5321,2.5323,0,0,0,0,0,0,0,2.5183,2.5191,2.5281,2.5249,2.5248,2.5235,2.5239,2.5289,2.5288,2.5255,2.5251,2.5257,2.5291,2.5306,2.5311,2.539,2.5317,2.5321,2.5323,2.5325,2.553,2.5533,0,0,0,0,0,0,2.5181,2.5189,2.528,2.5283,2.5209,2.524,2.5244,2.5269,2.5287,2.5288,2.5259,2.5255,2.53,2.5306,2.5312,2.5405,2.5321,2.5325,2.5328,2.5527,2.5531,2.5534,0,0,0,0,0,0,2.5179,2.519,2.5278,2.5235,2.5245,2.5245,2.5273,2.5271,2.5286,2.5291,2.529,2.5275,2.5299,2.5306,2.5366,2.5406,2.5327,2.5331,2.5524,2.5528,2.5532,2.5594,0,0,0,0,0,0,2.5175,2.5189,2.5221,2.5236,2.5248,2.5332,2.5275,2.5274,2.5294,2.5288,2.5306,2.5306,2.5297,2.536,2.537,2.541,2.5335,2.552,2.5526,2.5531,2.5588,2.5599,2.5609,0,0,0,0,0,2.5171,2.5238,2.5223,2.5234,2.5287,2.5335,2.5341,2.533,2.5297,2.5328,2.5331,2.5306,2.5401,2.5367,2.5378,2.542,2.5518,2.5524,2.5531,2.5583,2.5597,2.5609,0,0,0,0,0,0,2.5229,2.5239,2.5223,2.5297,2.5315,2.5327,2.5365,2.5346,2.5373,2.5367,2.5351,2.5355,2.5418,2.5426,2.5387,2.5497,2.5454,2.5463,2.549,2.5503,2.5514,2.5509,2.5338,0,0,0,0,0,2.525,2.5288,2.5295,2.5359,2.5369,2.5366,2.5386,2.5375,2.5394,2.5401,2.5408,2.5427,2.546,2.5483,2.5514,2.559,2.5591,2.5624,2.5634,2.5643,2.565,2.5686,2.57,2.5555,2.5555,2.5555,0,0,2.5294,2.5305,2.533,2.5371,2.5384,2.5422,2.5373,2.5417,2.5444,2.5408,2.5463,2.5469,2.5489,2.5555,2.5585,2.5563,2.5691,2.5651,2.5658,2.5661,2.5694,2.5708,2.572,2.5559,2.5559,2.5558,0,0,2.5393,2.5407,2.5459,2.5472,2.5492,2.5489,2.5502,2.5516,2.5517,2.5573,2.5545,2.5578,2.5638,2.5651,2.5666,2.5767,2.5743,2.5778,2.5832,2.5868,2.5879,2.5889,2.5921,2.5933,2.5786,2.5786,2.5786,0,2.5445,2.5502,2.5489,2.5533,2.555,2.5519,2.557,2.5584,2.5613,2.5625,2.5601,2.5672,2.5683,2.575,2.5775,2.5789,2.5801,2.5774,2.5879,2.5888,2.5898,2.5928,2.594,2.5789,2.5789,2.5789,2.5788,0,2.5563,2.5603,2.5643,2.567,2.5692,2.574,2.5732,2.5757,2.5743,2.5742,2.5797,2.581,2.5841,2.5857,2.5846,2.5922,2.5907,2.5881,2.5836,2.5915,2.5943,2.5955,2.5795,2.5793,2.5792,2.5791,0,0,2.5699,2.5716,2.5731,2.5741,2.5759,2.5789,2.5835,2.5864,2.5883,2.5905,2.594,2.599,2.5965,2.5982,2.5971,2.6003,2.6077,2.5972,2.5972,2.5988,2.6157,2.6173,2.6187,2.6062,2.6065,2.6066,2.6153,0,2.5795,2.5873,2.5861,2.5935,2.5969,2.5939,2.5978,2.5993,2.5993,2.6021,2.6021,2.6055,2.6022,2.603,2.6061,2.6061,2.611,2.6055,2.6092,2.6094,2.6085,2.6202,2.6221,2.6302,2.6165,2.6167,2.6168,0,2.5917,2.594,2.6018,2.6026,2.604,2.6076,2.61,2.6129,2.6144,2.6141,2.6159,2.6142,2.6185,2.6141,2.6199,2.6162,2.6177,2.618,2.6182,2.6182,2.6133,2.6202,2.6329,2.6339,2.6186,2.6185,2.6183,0,2.6003,2.6054,2.6105,2.6116,2.6129,2.6154,2.616,2.6173,2.619,2.6212,2.6222,2.625,2.6264,2.6284,2.6274,2.6244,2.6332,2.6289,2.6329,2.6329,2.6346,2.6345,2.6473,2.6362,2.6362,2.6362,2.6362,0,2.6109,2.6156,2.6144,2.6175,2.6226,2.6212,2.6263,2.6266,2.6277,2.6307,2.6284,2.6313,2.6299,2.6327,2.632,2.6366,2.6374,2.6371,2.6368,2.6371,2.6371,2.6378,2.6371,2.6365,2.6364,2.6364,2.6363,0,2.6213,2.6207,2.626,2.6267,2.627,2.6307,2.6313,2.6341,2.6339,2.6377,2.6385,2.6382,2.6412,2.6405,2.644,2.6435,2.6492,2.6484,2.6486,2.6482,2.6521,2.6516,2.6656,2.6672,2.6554,2.6555,2.6556,0,2.6279,2.6314,2.6324,2.6342,2.635,2.638,2.6397,2.6384,2.6402,2.642,2.6446,2.6475,2.6496,2.6547,2.6547,2.6572,2.6562,2.6609,2.6565,2.6566,2.6557,2.6554,2.6555,2.6617,2.6618,2.6619,2.662,0,2.6395,2.639,2.6415,2.6438,2.6459,2.6477,2.6493,2.6509,2.6496,2.6518,2.6549,2.6565,2.6599,2.6627,2.6649,2.6655,2.6634,2.6634,2.6644,2.6645,2.6644,2.6641,2.6505,2.663,2.6629,2.6628,2.6628,2.6627,2.648,2.6508,2.6518,2.6546,2.6556,2.657,2.6596,2.6596,2.6621,2.6646,2.6638,2.6672,2.6683,2.6711,2.672,2.6745,2.6727,2.6742,2.6746,2.6749,2.6751,2.6643,2.675,2.675,2.6749,2.6749,2.6749,0,2.6591,2.6596,2.6621,2.6643,2.6664,2.6643,2.6659,2.6678,2.6707,2.672,2.6741,2.6774,2.68,2.6802,2.6825,2.6845,2.6836,2.6852,2.6848,2.6849,2.6768,2.6755,2.6858,2.6858,2.6858,2.6858,2.6858,2.6858,2.6651,2.6696,2.6692,2.6741,2.6745,2.6777,2.6787,2.68,2.6809,2.6846,2.6867,2.6868,2.6875,2.6899,2.6921,2.692,2.6928,2.6947,2.6943,2.6866,2.6855,2.6845,2.6832,2.695,2.695,2.7021,2.7021,2.7022]},{"header":{"parameterUnit":"m.s-1","parameterCategory":1,"la1":30.2991,"la2":30.254,"lo1":-89.0895,"lo2":-89.0444,"dy":0.0017,"dx":0.0017,"nx":28,"ny":28,"refTime":"2023-10-10T03:00:00:Z","depth":0,"parameterNumber":3,"parameterNumberName":"V-component_of_WINDS"},"data":[0,0,0,0,0,0,0,0,0,0,0,0,0,0,0,0,0,0,0,0,0,0,0,0,0,0,0,0,0,0,0,0,0,0,0,0,0,0,0,0,0,0,0,0,0,0,0,0,0,0,0,0,0,0,0,0,0,0,2.1935,2.1936,0,2.1999,2.1999,2.2,2.1984,2.1983,2.1982,2.198,2.2045,2.2047,2.205,0,0,0,0,0,0,0,0,0,0,0,0,0,2.1796,2.1798,2.1935,2.1936,2.1936,2.1999,2.1999,2.2,2.1984,2.1983,2.1981,2.198,2.2044,2.2047,2.2051,0,0,0,0,0,0,0,0,0,0,0,0,0,2.1857,2.1799,2.1935,2.1936,2.1937,2.1998,2.1999,2.2001,2.1985,2.1983,2.1981,2.1979,2.2043,2.2047,2.2051,2.2115,0,0,2.2064,2.2066,0,0,0,0,0,0,0,0,2.1854,2.1863,2.1935,2.1936,2.1937,2.1982,2.1974,2.2039,2.1985,2.1966,2.198,2.1978,2.2025,2.2031,2.2047,2.2118,2.2121,2.2065,2.2067,2.2069,2.207,0,0,0,0,0,0,0,2.185,2.186,2.196,2.1936,2.1937,2.1932,2.1939,2.1986,2.2005,2.1968,2.1967,2.1975,2.2025,2.2043,2.2048,2.2122,2.2064,2.2068,2.2071,2.2073,2.2245,2.2247,0,0,0,0,0,0,2.1845,2.1856,2.1958,2.1962,2.189,2.1936,2.1944,2.1969,2.2005,2.2009,2.1976,2.1974,2.2036,2.2043,2.205,2.2125,2.2069,2.2073,2.2076,2.2243,2.2245,2.2247,0,0,0,0,0,0,2.1842,2.1854,2.1955,2.1909,2.1921,2.1941,2.1969,2.1971,2.1989,2.2011,2.2014,2.1991,2.2035,2.2044,2.2098,2.2128,2.2075,2.2079,2.2241,2.2244,2.2246,2.2278,0,0,0,0,0,0,2.1838,2.1853,2.1879,2.191,2.1924,2.2004,2.1971,2.1974,2.1996,2.1994,2.2026,2.2029,2.2034,2.2092,2.2103,2.2133,2.2082,2.2238,2.2242,2.2245,2.2274,2.2281,2.2287,0,0,0,0,0,2.1833,2.1886,2.188,2.1893,2.1956,2.2005,2.2013,2.2019,2.1999,2.2024,2.2038,2.2028,2.2123,2.2098,2.211,2.2141,2.2236,2.2241,2.2245,2.2271,2.228,2.2287,0,0,0,0,0,0,2.1859,2.189,2.1884,2.1948,2.1974,2.2003,2.2035,2.2028,2.206,2.2057,2.2061,2.2068,2.2123,2.2138,2.2109,2.2203,2.2176,2.2183,2.2192,2.22,2.2207,2.2202,2.2086,0,0,0,0,0,2.1872,2.1909,2.1934,2.1988,2.2002,2.2016,2.2037,2.2039,2.2066,2.2077,2.2095,2.212,2.2155,2.2179,2.2213,2.2276,2.2281,2.2303,2.231,2.2315,2.2321,2.2353,2.2362,2.2262,2.2262,2.2262,0,0,2.1899,2.1921,2.1945,2.1994,2.2014,2.2052,2.2025,2.2067,2.2095,2.2083,2.2135,2.2148,2.2177,2.2235,2.2262,2.2249,2.2349,2.2321,2.2325,2.2328,2.2358,2.2368,2.2376,2.2265,2.2265,2.2264,0,0,2.1968,2.1989,2.2035,2.2055,2.2086,2.2094,2.2105,2.2134,2.2142,2.2194,2.2185,2.2217,2.2279,2.2299,2.2317,2.239,2.2381,2.24,2.2436,2.2466,2.2474,2.2481,2.2505,2.2514,2.2406,2.2406,2.2406,0,2.1998,2.2056,2.206,2.2101,2.2122,2.2112,2.2158,2.2177,2.2217,2.2231,2.2216,2.229,2.231,2.2371,2.2388,2.2404,2.2415,2.2397,2.2473,2.248,2.2486,2.2509,2.2518,2.2408,2.2408,2.2408,2.2408,0,2.209,2.213,2.2163,2.2201,2.2225,2.2269,2.2278,2.2302,2.23,2.231,2.2361,2.2383,2.242,2.2434,2.2434,2.2495,2.2485,2.2472,2.2445,2.2498,2.2519,2.2528,2.2411,2.2411,2.241,2.241,0,0,2.218,2.2216,2.2228,2.2244,2.2275,2.2305,2.2347,2.2383,2.2402,2.2429,2.2463,2.2513,2.25,2.252,2.2522,2.2549,2.2602,2.2531,2.2532,2.2542,2.2667,2.2677,2.2687,2.2596,2.2598,2.2599,2.2664,0,2.225,2.2324,2.2327,2.2394,2.2429,2.2418,2.2454,2.2476,2.2485,2.2515,2.2525,2.256,2.254,2.2552,2.2578,2.259,2.2627,2.2585,2.2626,2.2628,2.2619,2.2699,2.271,2.2771,2.2673,2.2675,2.2676,0,2.2343,2.2372,2.2442,2.2465,2.248,2.2512,2.2543,2.2573,2.2596,2.2601,2.2622,2.2618,2.2659,2.263,2.2685,2.2656,2.2673,2.2681,2.2683,2.2687,2.2655,2.2704,2.2791,2.2799,2.2689,2.2688,2.2687,0,2.2399,2.2455,2.2504,2.2517,2.2546,2.2569,2.2582,2.2603,2.2623,2.265,2.2663,2.2694,2.2711,2.2734,2.2738,2.2718,2.2792,2.2765,2.2796,2.2796,2.2812,2.2811,2.2902,2.2824,2.2824,2.2824,2.2824,0,2.2478,2.2521,2.2529,2.2558,2.2605,2.2607,2.2653,2.2664,2.2682,2.2713,2.2705,2.2734,2.2738,2.2767,2.277,2.2813,2.2821,2.2825,2.2825,2.2825,2.2824,2.2836,2.2831,2.2826,2.2826,2.2825,2.2825,0,2.2549,2.2556,2.2608,2.2629,2.2636,2.2669,2.2687,2.2714,2.2721,2.276,2.2769,2.278,2.2813,2.2819,2.2859,2.2861,2.2912,2.2909,2.2904,2.2903,2.2934,2.293,2.3035,2.3047,2.2962,2.2963,2.2964,0,2.2598,2.2631,2.2655,2.2674,2.2688,2.272,2.274,2.2742,2.2763,2.279,2.2814,2.2846,2.2872,2.2925,2.2936,2.2965,2.2962,2.2996,2.2966,2.2964,2.2961,2.2958,2.296,2.3002,2.3003,2.3004,2.3004,0,2.2685,2.2686,2.2715,2.2744,2.2767,2.2791,2.2813,2.2829,2.2833,2.2857,2.289,2.291,2.2949,2.2981,2.3009,2.3021,2.3013,2.3013,2.3022,2.3022,2.3018,2.3019,2.2919,2.3011,2.301,2.301,2.301,2.3009,2.2745,2.2772,2.2793,2.2824,2.2841,2.2861,2.2887,2.2896,2.2924,2.2956,2.2955,2.2991,2.301,2.3048,2.3061,2.3089,2.3078,2.309,2.3093,2.3096,2.3098,2.3013,2.3094,2.3094,2.3094,2.3093,2.3093,0,2.283,2.2842,2.2871,2.2901,2.2925,2.2914,2.2937,2.2958,2.299,2.3009,2.3034,2.307,2.31,2.3112,2.3141,2.316,2.3157,2.3167,2.3166,2.3168,2.3108,2.3097,2.3169,2.3169,2.3169,2.3169,2.3169,2.3169,2.2877,2.2921,2.2924,2.2975,2.2987,2.3022,2.3035,2.3053,2.3068,2.3109,2.3133,2.3141,2.3156,2.3185,2.3211,2.3214,2.3224,2.3236,2.3237,2.318,2.3173,2.3165,2.3155,2.3238,2.3239,2.3295,2.3295,2.3295]}]]